Change the Weather History Date:

Thursday, July 17, 2014

  Actual Average (KSNY) Record (KSNY)
Temperature  
Mean Temperature 64 °F 76 °F  
Max Temperature 73 °F 91 °F 105 °F (2003)
Min Temperature 54 °F 60 °F 51 °F (1950)
Degree Days  
Heating Degree Days 2 0  
Month to date heating degree days 0  
Since 1 June heating degree days 59  
Since 1 July heating degree days 0  
Cooling Degree Days 0 11  
Month to date cooling degree days 167  
Year to date cooling degree days 326  
Since 1 June cooling degree days 304  
Growing Degree Days 14 (Base 50)    
Moisture  
Dew Point 53 °F    
Average Humidity 75    
Maximum Humidity 97    
Minimum Humidity 47    
Precipitation  
Precipitation 0.00 in 0.11 in 0.92 in (1954)
Month to date precipitation 1.64  
Year to date precipitation 11.58  
Sea Level Pressure  
Sea Level Pressure 30.10 in    
Wind  
Wind Speed 4 mph (SSE)    
Max Wind Speed 14 mph    
Max Gust Speed 17 mph    
Visibility 8 miles    
Events      
T = Trace of Precipitation, MM = Missing Value Source: NWS Daily Summary

Daily Weather History Graph

Daily Weather History Graph

Search for Another Location

Airport or City:

Trip Planner

Search our weather history database for the weather conditions in past years. The results will help you decide how hot, cold, wet, or windy it might be!

Date:

Astronomy

Jul. 17, 2014 Rise Set
Actual Time 6:36 AM CDT 9:24 PM CDT
Civil Twilight 6:04 AM CDT 9:57 PM CDT
Nautical Twilight 5:23 AM CDT 10:37 PM CDT
Astronomical Twilight 4:36 AM CDT 11:24 PM CDT
Moon 12:07 AM CDT (7/17) 12:54 PM CDT (7/17)
Length of Visible Light 15h 53m
Length of Day
14h 48m
Waning Gibbous, 65% of the Moon is Illuminated
Jul 17
Waning Gibbous
Jul 18
Last Quarter
Jul 26
New
Aug 3
First Quarter
Aug 10
Full

Hourly Weather History & Observations

Time (CDT) Temp. Dew Point Humidity Pressure Visibility Wind Dir Wind Speed Gust Speed Precip Events Conditions
12:15 AM 55.8 °F 54.7 °F 96% 30.12 in 5.0 mi East 3.5 mph - N/A   Overcast
12:35 AM 55.8 °F 54.7 °F 96% 30.12 in 5.0 mi ESE 4.6 mph - N/A   Overcast
12:55 AM 55.8 °F 54.5 °F 96% 30.12 in 7.0 mi ESE 3.5 mph - N/A   Overcast
1:15 AM 55.6 °F 54.5 °F 96% 30.12 in 5.0 mi ESE 3.5 mph - N/A   Overcast
1:35 AM 55.6 °F 54.5 °F 96% 30.12 in 7.0 mi ESE 3.5 mph - N/A   Overcast
1:55 AM 55.8 °F 54.7 °F 96% 30.12 in 7.0 mi Calm Calm - N/A   Overcast
2:15 AM 55.9 °F 54.9 °F 96% 30.12 in 7.0 mi SE 3.5 mph - N/A   Overcast
2:35 AM 55.8 °F 54.7 °F 96% 30.12 in 7.0 mi SSE 4.6 mph - N/A   Overcast
2:55 AM 55.8 °F 54.9 °F 97% 30.12 in 5.0 mi ESE 4.6 mph - N/A   Overcast
3:15 AM 55.6 °F 54.9 °F 97% 30.12 in 5.0 mi ESE 5.8 mph - N/A   Overcast
3:35 AM 55.4 °F 54.5 °F 97% 30.12 in 10.0 mi ESE 3.5 mph - N/A   Overcast
3:55 AM 55.4 °F 54.7 °F 97% 30.11 in 10.0 mi SE 3.5 mph - N/A   Overcast
4:15 AM 55.4 °F 54.7 °F 97% 30.11 in 10.0 mi SE 5.8 mph - N/A   Overcast
4:35 AM 55.4 °F 54.5 °F 97% 30.11 in 10.0 mi South 3.5 mph - N/A   Overcast
4:55 AM 54.9 °F 54.0 °F 97% 30.11 in 10.0 mi South 3.5 mph - N/A   Overcast
5:15 AM 54.9 °F 54.0 °F 97% 30.11 in 10.0 mi Calm Calm - N/A   Overcast
5:35 AM 55.4 °F 54.5 °F 97% 30.11 in 10.0 mi Calm Calm - N/A   Overcast
5:55 AM 55.0 °F 53.6 °F 95% 30.11 in 10.0 mi Calm Calm - N/A   Overcast
6:15 AM 55.4 °F 53.8 °F 94% 30.11 in 10.0 mi Calm Calm - N/A   Overcast
6:35 AM 55.4 °F 53.6 °F 94% 30.11 in 10.0 mi Calm Calm - N/A   Overcast
6:55 AM 55.4 °F 53.6 °F 94% 30.11 in 10.0 mi Calm Calm - N/A   Overcast
7:15 AM 55.4 °F 53.6 °F 94% 30.12 in 10.0 mi Calm Calm - N/A   Overcast
7:35 AM 55.8 °F 53.6 °F 92% 30.12 in 10.0 mi Calm Calm - N/A   Overcast
7:55 AM 55.9 °F 53.6 °F 92% 30.12 in 10.0 mi Calm Calm - N/A   Overcast
8:15 AM 56.3 °F 53.6 °F 91% 30.13 in 10.0 mi Calm Calm - N/A   Overcast
8:35 AM 56.7 °F 52.9 °F 87% 30.12 in 10.0 mi Calm Calm - N/A   Overcast
8:55 AM 57.2 °F 53.2 °F 87% 30.13 in 10.0 mi Calm Calm - N/A   Overcast
9:15 AM 58.1 °F 53.4 °F 84% 30.13 in 10.0 mi Calm Calm - N/A   Overcast
9:35 AM 59.0 °F 52.9 °F 80% 30.13 in 10.0 mi Calm Calm - N/A   Overcast
9:55 AM 60.3 °F 52.9 °F 77% 30.12 in 10.0 mi Calm Calm - N/A   Overcast
10:15 AM 60.4 °F 52.7 °F 76% 30.13 in 10.0 mi SSW 3.5 mph - N/A   Overcast
10:35 AM 62.4 °F 53.2 °F 72% 30.13 in 10.0 mi Calm Calm - N/A   Overcast
10:55 AM 62.2 °F 52.2 °F 70% 30.13 in 10.0 mi Calm Calm - N/A   Mostly Cloudy
11:15 AM 62.1 °F 51.8 °F 69% 30.13 in 10.0 mi Calm Calm - N/A   Scattered Clouds
11:35 AM 64.4 °F 52.5 °F 65% 30.12 in 10.0 mi Calm Calm - N/A   Clear
11:55 AM 66.0 °F 53.4 °F 64% 30.13 in 10.0 mi East 5.8 mph - N/A   Scattered Clouds
12:15 PM 66.2 °F 53.6 °F 64% 30.13 in 10.0 mi South 8.1 mph - N/A   Scattered Clouds
12:35 PM 66.4 °F 53.1 °F 62% 30.12 in 10.0 mi SSE 5.8 mph - N/A   Scattered Clouds
12:55 PM 66.7 °F 53.1 °F 61% 30.12 in 10.0 mi ESE 3.5 mph - N/A   Scattered Clouds
1:15 PM 67.6 °F 53.8 °F 61% 30.11 in 10.0 mi ESE 3.5 mph - N/A   Clear
1:35 PM 68.7 °F 54.5 °F 60% 30.11 in 10.0 mi SSE 8.1 mph - N/A   Clear
1:55 PM 68.9 °F 54.9 °F 61% 30.11 in 10.0 mi SE 6.9 mph - N/A   Clear
2:15 PM 69.3 °F 54.0 °F 58% 30.11 in 10.0 mi SSE 4.6 mph - N/A   Clear
2:35 PM 70.2 °F 54.0 °F 56% 30.10 in 10.0 mi SSE 9.2 mph 16.1 mph N/A   Clear
2:55 PM 71.1 °F 54.9 °F 56% 30.10 in 10.0 mi SSE 8.1 mph - N/A   Clear
3:15 PM 70.9 °F 54.3 °F 56% 30.10 in 10.0 mi South 10.4 mph 17.3 mph N/A   Clear
3:35 PM 71.6 °F 54.0 °F 54% 30.10 in 10.0 mi SSE 11.5 mph - N/A   Clear
3:55 PM 71.6 °F 53.6 °F 53% 30.09 in 10.0 mi SSE 11.5 mph - N/A   Clear
4:15 PM 72.0 °F 52.7 °F 51% 30.08 in 10.0 mi SSE 10.4 mph - N/A   Clear
4:35 PM 72.5 °F 52.3 °F 49% 30.08 in 10.0 mi SE 10.4 mph - N/A   Clear
4:55 PM 72.9 °F 51.8 °F 47% 30.07 in 10.0 mi SSE 10.4 mph - N/A   Clear
5:15 PM 72.9 °F 51.3 °F 47% 30.07 in 10.0 mi SSE 8.1 mph - N/A   Clear
5:35 PM 73.0 °F 52.0 °F 48% 30.06 in 10.0 mi SE 10.4 mph - N/A   Clear
5:55 PM 72.5 °F 51.3 °F 47% 30.06 in 0.5 mi SSE 10.4 mph - N/A   Haze
6:15 PM 72.5 °F 51.1 °F 47% 30.06 in 1.0 mi SSE 11.5 mph - N/A   Haze
6:35 PM 72.5 °F 51.4 °F 47% 30.05 in 0.8 mi SSE 11.5 mph - N/A   Haze
6:55 PM 71.8 °F 51.1 °F 48% 30.04 in 1.0 mi SSE 12.7 mph - N/A   Haze
7:15 PM 71.2 °F 51.1 °F 49% 30.04 in 1.5 mi SSE 10.4 mph - N/A   Haze
7:35 PM 70.7 °F 52.2 °F 52% 30.04 in 2.0 mi SSE 11.5 mph - N/A   Haze
7:55 PM 69.8 °F 52.2 °F 53% 30.04 in 1.0 mi SSE 13.8 mph - N/A   Haze
8:15 PM 69.1 °F 52.3 °F 55% 30.04 in 1.0 mi SSE 12.7 mph - N/A   Haze
8:35 PM 68.2 °F 52.7 °F 58% 30.04 in 1.5 mi South 11.5 mph - N/A   Haze
8:55 PM 67.1 °F 52.9 °F 60% 30.04 in 4.0 mi South 10.4 mph - N/A   Haze
9:15 PM 65.5 °F 53.6 °F 65% 30.04 in 3.0 mi SSE 8.1 mph - N/A   Haze
9:35 PM 63.9 °F 53.8 °F 70% 30.04 in 3.0 mi South 9.2 mph - N/A   Haze
9:55 PM 62.6 °F 53.8 °F 73% 30.05 in 7.0 mi South 6.9 mph - N/A   Clear
10:15 PM 61.5 °F 53.6 °F 75% 30.05 in 10.0 mi South 9.2 mph - N/A   Clear
10:35 PM 60.8 °F 53.6 °F 77% 30.06 in 10.0 mi South 9.2 mph - N/A   Clear
10:55 PM 60.3 °F 53.6 °F 79% 30.06 in 10.0 mi South 8.1 mph - N/A   Clear
11:15 PM 59.2 °F 53.8 °F 82% 30.06 in 7.0 mi South 8.1 mph - N/A   Clear
11:35 PM 58.5 °F 54.0 °F 85% 30.06 in 4.0 mi SSE 9.2 mph - N/A   Haze
11:55 PM 58.3 °F 54.3 °F 87% 30.05 in 7.0 mi South 11.5 mph - N/A   Clear